[[{"header":{"parameterUnit":"m.s-1","parameterCategory":1,"la1":30.2992,"la2":30.254,"lo1":-89.0895,"lo2":-89.0443,"dy":0.0025,"dx":0.0025,"nx":19,"ny":19,"refTime":"2026-05-21T03:00:00:Z","depth":0,"parameterNumber":2,"parameterNumberName":"U-component_of_WINDS"},"data":[0,0,0,-2.2657,-2.2657,-2.2638,-2.2638,-2.263,-2.263,0,0,0,0,0,0,0,0,0,0,0,-2.2672,-2.2672,-2.2657,-2.2657,-2.2638,-2.2638,-2.263,-2.263,0,0,0,0,0,0,0,0,0,0,0,-2.2672,-2.2672,-2.2672,-2.2657,-2.2638,-2.2638,-2.263,-2.2638,0,0,0,0,0,0,0,0,0,0,-2.2654,-2.2676,-2.2672,-2.2672,-2.2657,-2.2638,-2.2638,-2.2638,-2.2638,-2.2645,0,-2.2653,0,-2.2641,-2.263,-2.263,0,0,0,-2.265,-2.2677,-2.2663,-2.2672,-2.2657,-2.2638,-2.2645,-2.2638,-2.2637,-2.2644,-2.2652,-2.2652,-2.2641,-2.263,-2.263,-2.2689,-2.269,0,0,-2.2651,-2.2673,-2.2664,-2.2663,-2.2667,-2.2645,-2.2644,-2.2637,-2.2648,-2.2652,-2.2651,-2.2641,-2.263,-2.263,-2.2689,-2.269,0,0,0,-2.2659,-2.2674,-2.2661,-2.2664,-2.2659,-2.2645,-2.2644,-2.2648,-2.2642,-2.2651,-2.2641,-2.263,-2.263,-2.2688,-2.2689,-2.2738,0,0,0,-2.2659,-2.2678,-2.2662,-2.2675,-2.266,-2.2654,-2.2655,-2.2643,-2.2641,-2.2641,-2.263,-2.263,-2.2688,-2.2689,-2.2735,-2.2757,0,0,0,-2.267,-2.268,-2.268,-2.2676,-2.2669,-2.2653,-2.2646,-2.2642,-2.2635,-2.263,-2.263,-2.2687,-2.2689,-2.2732,-2.2752,-2.2777,0,0,0,-2.2688,-2.2724,-2.2681,-2.2718,-2.2669,-2.2684,-2.2646,-2.2656,-2.2658,-2.263,-2.2688,-2.2689,-2.2732,-2.275,-2.2775,-2.2801,-2.2814,0,0,-2.2746,-2.2732,-2.2752,-2.2713,-2.2741,-2.2685,-2.272,-2.2701,-2.2681,-2.2688,-2.2689,-2.2736,-2.2752,-2.2777,-2.2884,-2.2895,0,0,0,-2.2778,-2.2793,-2.2795,-2.2797,-2.2783,-2.2773,-2.2746,-2.2739,-2.2744,-2.2689,-2.2752,-2.2761,-2.2774,-2.2786,-2.2795,-2.2804,-2.2696,-2.2696,-2.2695,-2.2891,-2.2863,-2.2894,-2.2864,-2.2866,-2.2838,-2.2838,-2.2823,-2.2796,-2.2811,-2.2812,-2.288,-2.2895,-2.2901,-2.2912,-2.2825,-2.2825,-2.2825,-2.2826,-2.2973,-2.2988,-2.2949,-2.2965,-2.2936,-2.2949,-2.2924,-2.2904,-2.2912,-2.2877,-2.2888,-2.2851,-2.2914,-2.2922,-2.2829,-2.2828,-2.2828,-2.2828,-2.2827,-2.3042,-2.3044,-2.3035,-2.3034,-2.3037,-2.3006,-2.3015,-2.2989,-2.2964,-2.2974,-2.2972,-2.2971,-2.2965,-2.2975,-2.2976,-2.2976,-2.2976,-2.2976,-2.2976,-2.3117,-2.3105,-2.3115,-2.3104,-2.3101,-2.3094,-2.3067,-2.3064,-2.3053,-2.3033,-2.3033,-2.3003,-2.2926,-2.2906,-2.298,-2.2979,-2.2979,-2.2979,-2.2978,-2.3207,-2.3182,-2.3199,-2.3196,-2.318,-2.3184,-2.315,-2.3146,-2.314,-2.3145,-2.3113,-2.3061,-2.3045,-2.3037,-2.302,-2.3119,-2.3119,-2.3119,-2.312,-2.3265,-2.3254,-2.3264,-2.3261,-2.3256,-2.3227,-2.3246,-2.3225,-2.32,-2.3195,-2.3177,-2.3153,-2.3147,-2.3134,-2.3125,-2.3109,-2.3228,-2.3228,-2.3228,-2.3318,-2.3305,-2.3326,-2.33,-2.3286,-2.3274,-2.3291,-2.329,-2.3256,-2.3232,-2.3189,-2.3185,-2.3146,-2.3135,-2.3108,-2.3094,-2.3064,0,0]},{"header":{"parameterUnit":"m.s-1","parameterCategory":1,"la1":30.2992,"la2":30.254,"lo1":-89.0895,"lo2":-89.0443,"dy":0.0025,"dx":0.0025,"nx":19,"ny":19,"refTime":"2026-05-21T03:00:00:Z","depth":0,"parameterNumber":3,"parameterNumberName":"V-component_of_WINDS"},"data":[0,0,0,3.2121,3.2124,3.2242,3.2242,3.238,3.2381,0,0,0,0,0,0,0,0,0,0,0,3.208,3.2081,3.2121,3.2124,3.2242,3.2242,3.238,3.2381,0,0,0,0,0,0,0,0,0,0,0,3.208,3.2081,3.2081,3.2124,3.2242,3.2242,3.2379,3.2295,0,0,0,0,0,0,0,0,0,0,3.2182,3.2138,3.208,3.2081,3.2125,3.2241,3.2242,3.2291,3.23,3.2321,0,3.234,0,3.2363,3.239,3.239,0,0,0,3.2128,3.213,3.2168,3.2082,3.2126,3.2241,3.219,3.2296,3.2306,3.2333,3.2342,3.2348,3.2365,3.239,3.2391,3.2507,3.2507,0,0,3.2122,3.2097,3.2161,3.2175,3.2158,3.2186,3.2193,3.2303,3.2309,3.2343,3.2351,3.2367,3.2391,3.2392,3.2506,3.2507,0,0,0,3.21,3.2092,3.2128,3.2169,3.2191,3.2189,3.2198,3.2305,3.2319,3.2353,3.2369,3.2392,3.2394,3.2506,3.2507,3.2502,0,0,0,3.2097,3.208,3.2125,3.2111,3.2189,3.225,3.2197,3.2311,3.2324,3.2368,3.2392,3.2395,3.2506,3.2506,3.2501,3.2503,0,0,0,3.2074,3.2077,3.2092,3.2109,3.2159,3.2249,3.2269,3.2314,3.2334,3.239,3.2395,3.2505,3.2506,3.2501,3.2502,3.2529,0,0,0,3.2043,3.2083,3.2092,3.2143,3.2158,3.2245,3.2268,3.2334,3.2381,3.2393,3.2506,3.2507,3.25,3.2502,3.2528,3.2547,3.2552,0,0,3.208,3.2087,3.2119,3.213,3.221,3.2229,3.2308,3.2373,3.2399,3.2469,3.2472,3.2501,3.2502,3.2528,3.259,3.2594,0,0,0,3.2122,3.2146,3.2172,3.2218,3.2271,3.2317,3.2374,3.2399,3.246,3.2431,3.2518,3.2519,3.2536,3.2546,3.255,3.2566,3.251,3.251,3.251,3.2138,3.2173,3.223,3.228,3.2324,3.2385,3.2423,3.2467,3.2486,3.2506,3.2527,3.2561,3.2572,3.2575,3.2591,3.2539,3.2539,3.2539,3.2539,3.2196,3.2235,3.2265,3.2331,3.2368,3.2422,3.2483,3.2495,3.2552,3.2547,3.2563,3.2555,3.2578,3.2595,3.2539,3.2539,3.2539,3.2539,3.2539,3.2211,3.2236,3.2268,3.2341,3.2393,3.2441,3.2496,3.2526,3.2555,3.2571,3.2598,3.2598,3.2603,3.2582,3.2582,3.2582,3.2582,3.2582,3.2582,3.2214,3.225,3.2294,3.2357,3.2392,3.2442,3.2506,3.2541,3.2588,3.2605,3.2606,3.2624,3.2574,3.2562,3.2584,3.2584,3.2583,3.2583,3.2583,3.2261,3.2256,3.2323,3.2359,3.2438,3.2489,3.2528,3.2598,3.2631,3.2658,3.2674,3.2632,3.264,3.2637,3.2627,3.2666,3.2666,3.2666,3.2666,3.2274,3.2283,3.236,3.2417,3.2475,3.2519,3.2594,3.2644,3.2695,3.2718,3.2717,3.2706,3.2702,3.2713,3.2709,3.27,3.2756,3.2756,3.2756,3.2306,3.2322,3.2381,3.2434,3.2498,3.2553,3.2625,3.2688,3.2744,3.276,3.2738,3.2734,3.2717,3.2709,3.2723,3.2716,3.27,0,0]}]]